PIA701 OPIS-EGCC

Flight info

Callsign PIA701
Flight time N/A
Altitude 26000
Route KALMI J139 HANGU G796 LAJAK/N0494F340 L509 TAPIS P173 DAVET B475 NINOP A909 TUGTA B701 LARGI N701 BAKUV L850 ADEKI N644 TETRO M10 SARPI/N0482F360 UM10 GOKPA DCT ODERO DCT EVRIK DCT BUDOP DCT NORAH DCT PATAK DCT LALES DCT SOPGA DCT RAPET DCT MASEK DCT PODIP DCT TORNU DCT BREDA DCT GALSO Q63 ERING L179 LAM UN57 WELIN T420 TNT
Aircraft B77W/H-SDE1E2E3FGHIJ2J3J4J5M1RWXY/LB1D1

Departure

Time 2026-04-22 10:41
Airport Islamabad International Airport (OPIS)

Arrival

Time N/A
Airport Manchester Airport (EGCC)
Time Latitude Longitude Altitude Speed Heading
2026-04-22 10:15 33.55374 72.83111 1774 ft 0 kts 326°
2026-04-22 10:30 33.55371 72.83114 1774 ft 3 kts 325°
2026-04-22 10:30 33.55349 72.83133 1777 ft 4 kts 318°
2026-04-22 10:31 33.55330 72.83156 1775 ft 4 kts 309°
2026-04-22 10:31 33.55315 72.83182 1774 ft 4 kts 292°
2026-04-22 10:31 33.55311 72.83211 1774 ft 4 kts 247°
2026-04-22 10:31 33.55313 72.83217 1774 ft 0 kts 236°
2026-04-22 10:35 33.55312 72.83215 1774 ft 2 kts 236°
2026-04-22 10:35 33.55281 72.83160 1777 ft 10 kts 236°
2026-04-22 10:35 33.55242 72.83092 1777 ft 10 kts 236°
2026-04-22 10:35 33.55201 72.83029 1774 ft 10 kts 220°
2026-04-22 10:36 33.55129 72.83053 1777 ft 17 kts 119°
2026-04-22 10:36 33.55100 72.83206 1777 ft 19 kts 100°
2026-04-22 10:36 33.55075 72.83362 1775 ft 19 kts 101°
2026-04-22 10:36 33.55051 72.83517 1776 ft 19 kts 100°
2026-04-22 10:37 33.55027 72.83673 1777 ft 19 kts 100°
2026-04-22 10:37 33.54991 72.83914 1774 ft 12 kts 100°
2026-04-22 10:37 33.54976 72.84012 1773 ft 12 kts 100°
2026-04-22 10:38 33.54960 72.84111 1773 ft 12 kts 100°
2026-04-22 10:38 33.54945 72.84211 1773 ft 12 kts 100°
2026-04-22 10:38 33.54930 72.84310 1772 ft 12 kts 100°
2026-04-22 10:38 33.54915 72.84409 1773 ft 12 kts 100°
2026-04-22 10:39 33.54898 72.84508 1773 ft 12 kts 109°
2026-04-22 10:39 33.54826 72.84543 1771 ft 13 kts 185°
2026-04-22 10:39 33.54738 72.84523 1767 ft 2 kts 191°
2026-04-22 10:39 33.54710 72.84505 1767 ft 9 kts 224°
2026-04-22 10:40 33.54706 72.84477 1767 ft 2 kts 277°
2026-04-22 10:40 33.54718 72.84382 1767 ft 28 kts 279°
2026-04-22 10:40 33.54801 72.83862 1768 ft 98 kts 281°
2026-04-22 10:40 33.54965 72.82800 1769 ft 160 kts 281°
2026-04-22 10:41 33.55196 72.81290 1780 ft 204 kts 280°
2026-04-22 10:41 33.55450 72.79637 2425 ft 192 kts 279°
2026-04-22 10:41 33.55679 72.78039 3003 ft 200 kts 280°
2026-04-22 10:41 33.55938 72.76373 3419 ft 208 kts 280°
2026-04-22 10:42 33.56221 72.74598 3556 ft 229 kts 279°
2026-04-22 10:42 33.56112 72.72645 3687 ft 247 kts 246°
2026-04-22 10:42 33.55034 72.70996 3888 ft 261 kts 223°
2026-04-22 10:42 33.53944 72.69233 4167 ft 271 kts 253°
2026-04-22 10:43 33.53816 72.66987 4697 ft 273 kts 277°
2026-04-22 10:43 33.54075 72.64707 5251 ft 279 kts 276°
2026-04-22 10:43 33.54254 72.62384 5922 ft 281 kts 274°
2026-04-22 10:43 33.54375 72.60042 6630 ft 283 kts 273°
2026-04-22 10:44 33.54461 72.57710 7304 ft 285 kts 272°
2026-04-22 10:44 33.54519 72.55321 7948 ft 289 kts 271°
2026-04-22 10:44 33.54568 72.52895 8551 ft 293 kts 271°
2026-04-22 10:44 33.54608 72.50445 9194 ft 295 kts 271°
2026-04-22 10:45 33.54642 72.47971 9821 ft 298 kts 271°
2026-04-22 10:45 33.54677 72.45460 10290 ft 308 kts 271°
2026-04-22 10:45 33.54710 72.42802 10453 ft 330 kts 271°
2026-04-22 10:45 33.54739 72.39971 10632 ft 350 kts 270°
2026-04-22 10:46 33.54752 72.36964 10791 ft 371 kts 270°
2026-04-22 10:46 33.54756 72.33860 11191 ft 383 kts 270°
2026-04-22 10:46 33.54762 72.30637 11796 ft 389 kts 270°
2026-04-22 10:46 33.54767 72.27378 12515 ft 393 kts 270°
2026-04-22 10:47 33.54774 72.24092 13321 ft 394 kts 270°
2026-04-22 10:47 33.54779 72.20799 14098 ft 396 kts 270°
2026-04-22 10:47 33.54785 72.17485 14811 ft 399 kts 270°
2026-04-22 10:47 33.54788 72.14143 15451 ft 404 kts 270°
2026-04-22 10:48 33.54794 72.10759 16128 ft 407 kts 270°
2026-04-22 10:48 33.54798 72.07405 16819 ft 409 kts 270°
2026-04-22 10:48 33.54800 72.03983 17516 ft 411 kts 269°
2026-04-22 10:48 33.54755 72.00544 18172 ft 414 kts 266°
2026-04-22 10:49 33.54556 71.97087 18806 ft 417 kts 264°
2026-04-22 10:49 33.54304 71.93609 19416 ft 421 kts 264°
2026-04-22 10:49 33.54067 71.90095 19981 ft 425 kts 265°
2026-04-22 10:49 33.53849 71.86546 20528 ft 429 kts 265°
2026-04-22 10:50 33.53640 71.82963 21073 ft 433 kts 265°
2026-04-22 10:50 33.53433 71.79348 21611 ft 437 kts 265°
2026-04-22 10:50 33.53224 71.75707 22163 ft 439 kts 265°
2026-04-22 10:50 33.53014 71.72091 22611 ft 444 kts 265°
2026-04-22 10:51 33.52798 71.68387 23057 ft 448 kts 265°
2026-04-22 10:51 33.52579 71.64652 23537 ft 451 kts 265°
2026-04-22 10:51 33.52356 71.60891 24019 ft 454 kts 265°
2026-04-22 10:51 33.52131 71.57107 24467 ft 457 kts 265°
2026-04-22 10:52 33.51904 71.53298 24923 ft 460 kts 265°
2026-04-22 10:52 33.51673 71.49472 25406 ft 461 kts 265°
2026-04-22 10:52 33.51440 71.45630 25852 ft 464 kts 265°
2026-04-22 10:52 33.51208 71.41818 26269 ft 466 kts 265°
2026-04-22 10:53 33.50967 71.37934 26675 ft 469 kts 265°
2026-04-22 10:53 33.50723 71.34030 27081 ft 471 kts 265°
2026-04-22 10:53 33.50478 71.30105 27463 ft 474 kts 265°
2026-04-22 10:53 33.50231 71.26162 27855 ft 476 kts 265°
2026-04-22 10:54 33.49982 71.22199 28223 ft 478 kts 265°
2026-04-22 10:54 33.49730 71.18222 28593 ft 480 kts 265°
2026-04-22 10:54 33.49477 71.14226 28926 ft 482 kts 265°
2026-04-22 10:54 33.49220 71.10217 29225 ft 484 kts 265°
2026-04-22 10:55 33.49012 71.06248 29476 ft 484 kts 270°
2026-04-22 10:55 33.49500 71.02249 29631 ft 490 kts 287°
2026-04-22 10:55 33.50908 70.98526 29969 ft 492 kts 300°
2026-04-22 10:55 33.53001 70.95294 30399 ft 491 kts 314°
2026-04-22 10:56 33.55499 70.92500 30706 ft 492 kts 316°
2026-04-22 10:56 33.58041 70.89752 31031 ft 492 kts 316°
2026-04-22 10:56 33.60578 70.87004 31396 ft 491 kts 316°
2026-04-22 10:56 33.63092 70.84243 31796 ft 489 kts 315°
2026-04-22 10:57 33.65576 70.81475 32200 ft 486 kts 315°
2026-04-22 10:57 33.68006 70.78739 32544 ft 485 kts 315°
2026-04-22 10:57 33.70458 70.75967 32900 ft 483 kts 314°
2026-04-22 10:57 33.72902 70.73194 33191 ft 483 kts 314°
2026-04-22 10:58 33.75344 70.70422 33479 ft 483 kts 314°
2026-04-22 10:58 33.77785 70.67651 33715 ft 483 kts 314°
2026-04-22 10:58 33.80235 70.64868 33743 ft 486 kts 314°
2026-04-22 10:59 33.85174 70.59257 33791 ft 492 kts 314°
2026-04-22 10:59 33.90122 70.53591 33786 ft 496 kts 312°
2026-04-22 11:00 33.94454 70.47142 33790 ft 495 kts 302°
2026-04-22 11:00 33.97839 70.39939 33795 ft 494 kts 296°
2026-04-22 11:01 34.01004 70.32596 33785 ft 494 kts 296°
2026-04-22 11:01 34.04166 70.25329 33782 ft 492 kts 296°
2026-04-22 11:02 34.07358 70.18047 33793 ft 490 kts 296°
2026-04-22 11:02 34.10541 70.10784 33789 ft 489 kts 296°
2026-04-22 11:03 34.13710 70.03532 33786 ft 488 kts 296°
2026-04-22 11:03 34.16847 69.96335 33792 ft 488 kts 296°
2026-04-22 11:04 34.20002 69.89074 33797 ft 488 kts 296°
2026-04-22 11:04 34.23141 69.81804 33814 ft 488 kts 295°
2026-04-22 11:05 34.26279 69.74524 33789 ft 489 kts 295°
2026-04-22 11:05 34.29417 69.67232 33788 ft 489 kts 295°
2026-04-22 11:06 34.32530 69.59986 33805 ft 488 kts 295°
2026-04-22 11:06 34.35655 69.52696 33822 ft 488 kts 295°
2026-04-22 11:07 34.38772 69.45403 33804 ft 488 kts 295°
2026-04-22 11:07 34.41886 69.38108 33811 ft 488 kts 295°
2026-04-22 11:08 34.44974 69.30851 33807 ft 487 kts 295°
2026-04-22 11:08 34.48076 69.23550 33813 ft 487 kts 295°
2026-04-22 11:09 34.51188 69.16262 33816 ft 487 kts 296°
2026-04-22 11:09 34.54951 69.09402 33833 ft 489 kts 303°
2026-04-22 11:10 34.58970 69.02801 33823 ft 490 kts 303°
2026-04-22 11:10 34.62993 68.96136 33818 ft 489 kts 303°
2026-04-22 11:11 34.66991 68.89451 33830 ft 489 kts 303°
2026-04-22 11:11 34.70981 68.82742 33836 ft 490 kts 302°
2026-04-22 11:12 34.74944 68.76071 33811 ft 491 kts 302°
2026-04-22 11:12 34.78938 68.69330 33812 ft 491 kts 302°
2026-04-22 11:13 34.82926 68.62596 33810 ft 490 kts 302°
2026-04-22 11:13 34.86903 68.55870 33809 ft 490 kts 302°
2026-04-22 11:14 34.90842 68.49190 33814 ft 488 kts 302°
2026-04-22 11:14 34.94802 68.42460 33823 ft 489 kts 302°
2026-04-22 11:15 34.98757 68.35726 33823 ft 488 kts 302°
2026-04-22 11:15 35.02708 68.28989 33812 ft 488 kts 302°
2026-04-22 11:16 35.06613 68.22292 33833 ft 488 kts 301°
2026-04-22 11:16 35.10475 68.15475 33834 ft 488 kts 301°
2026-04-22 11:17 35.14329 68.08640 33822 ft 488 kts 301°
2026-04-22 11:17 35.18182 68.01808 33825 ft 488 kts 301°
2026-04-22 11:18 35.22036 67.94981 33821 ft 488 kts 300°
2026-04-22 11:18 35.25858 67.88194 33825 ft 488 kts 300°
2026-04-22 11:19 35.29702 67.81359 33821 ft 487 kts 300°
2026-04-22 11:19 35.33587 67.74546 33821 ft 488 kts 301°
2026-04-22 11:20 35.37481 67.67741 33816 ft 488 kts 301°
2026-04-22 11:20 35.41342 67.60977 33847 ft 487 kts 300°
2026-04-22 11:21 35.45219 67.54155 33833 ft 488 kts 300°
2026-04-22 11:21 35.49092 67.47321 33858 ft 487 kts 300°
2026-04-22 11:22 35.52963 67.40478 33831 ft 488 kts 300°
2026-04-22 11:22 35.56803 67.33680 33839 ft 487 kts 300°
2026-04-22 11:23 35.60668 67.26824 33832 ft 489 kts 300°
2026-04-22 11:23 35.64535 67.19953 33841 ft 489 kts 300°
2026-04-22 11:24 35.68395 67.13081 33848 ft 488 kts 300°
2026-04-22 11:24 35.72225 67.06239 33835 ft 489 kts 300°
2026-04-22 11:25 35.76083 66.99345 33844 ft 489 kts 300°
2026-04-22 11:25 35.79940 66.92431 33831 ft 489 kts 300°
2026-04-22 11:26 35.83799 66.85533 33843 ft 489 kts 300°
2026-04-22 11:26 35.87664 66.78630 33844 ft 489 kts 300°
2026-04-22 11:27 35.91501 66.71755 33846 ft 491 kts 300°
2026-04-22 11:27 35.95370 66.64810 33839 ft 491 kts 300°
2026-04-22 11:28 35.99228 66.57859 33821 ft 492 kts 299°
2026-04-22 11:28 36.03090 66.50886 33827 ft 492 kts 300°
2026-04-22 11:29 36.06932 66.43974 33847 ft 490 kts 300°
2026-04-22 11:29 36.10793 66.36996 33855 ft 492 kts 300°
2026-04-22 11:30 36.14697 66.30065 33854 ft 490 kts 300°
2026-04-22 11:30 36.18441 66.23050 33854 ft 490 kts 299°
2026-04-22 11:31 36.22323 66.16198 33845 ft 487 kts 299°
2026-04-22 11:31 36.26084 66.09213 33826 ft 490 kts 298°
2026-04-22 11:32 36.29867 66.02181 33850 ft 491 kts 299°
2026-04-22 11:32 36.33705 65.95150 33855 ft 493 kts 299°
2026-04-22 11:33 36.37527 65.88164 33851 ft 493 kts 299°
2026-04-22 11:33 36.41367 65.81103 33848 ft 494 kts 298°
2026-04-22 11:34 36.45208 65.74017 33858 ft 495 kts 298°
2026-04-22 11:34 36.49023 65.66967 33861 ft 495 kts 298°
2026-04-22 11:35 36.52861 65.59853 33861 ft 496 kts 298°
2026-04-22 11:35 36.56699 65.52725 33860 ft 496 kts 298°
2026-04-22 11:36 36.60538 65.45589 33858 ft 496 kts 298°
2026-04-22 11:36 36.64373 65.38442 33865 ft 497 kts 297°
2026-04-22 11:37 36.68180 65.31327 33858 ft 497 kts 297°
2026-04-22 11:37 36.72015 65.24148 33862 ft 498 kts 297°
2026-04-22 11:38 36.75850 65.16951 33860 ft 499 kts 297°
2026-04-22 11:38 36.81576 65.06184 33864 ft 499 kts 297°
2026-04-22 11:39 36.85405 64.98961 33860 ft 500 kts 296°
2026-04-22 11:39 36.89236 64.91717 33861 ft 500 kts 296°
2026-04-22 11:40 36.93064 64.84466 33862 ft 500 kts 296°
2026-04-22 11:40 36.96367 64.76922 33866 ft 490 kts 286°
2026-04-22 11:41 36.98536 64.68999 33863 ft 483 kts 279°
2026-04-22 11:41 37.00426 64.60936 33860 ft 483 kts 279°
2026-04-22 11:42 37.02336 64.52868 33865 ft 484 kts 279°
2026-04-22 11:42 37.04249 64.44847 33861 ft 484 kts 279°
2026-04-22 11:43 37.06177 64.36772 33862 ft 484 kts 279°